Language: 


Des rapports , des résumés tant et plus, au choix de chacun....


Données statistiques de la station
Quotidien Rapport Octobre 11, 2017 Unités:  Anglais    Métrique   les deux
« Précédent Jour
Suivant Jour »
Quotidien Hebdomadaire Mensuel Annuel Actuel
  Haut: Bas: Moyen:
Température: 63.1 °F 32 °F 59 °F
Pt de rosée: 55.4 °F 51.8 °F 54.3 °F
Humidité: 94 % 0 % 82 %
Vitesse du vent: 17.7 mph 0 mph 7.8 mph
Rafales: 19 mph - -
Vent:- - SW
Pression: 30 in 0 in -
Précipitation: 0 in    
Historical Graphs
 
 
Données statistiques pour Octobre 11, 2017
Heure Température Point de rosée Pression Vent Vitesse du vent Refales Humidité Pluie (taux horaire)
00:04 57.7 °F 55.4 °F 30 in SW 4.3 mph 7.8 mph 94 % 0 in
00:09 57.7 °F 55.4 °F 30 in WSW 5.6 mph 7.6 mph 93 % 0 in
00:14 57.7 °F 55.4 °F 30 in SW 4.9 mph 8.5 mph 93 % 0 in
00:19 57.7 °F 55.4 °F 30 in SSW 8.7 mph 8.7 mph 93 % 0 in
00:24 57.7 °F 55.4 °F 30 in SW 7.6 mph 8.7 mph 93 % 0 in
00:29 57.7 °F 55.4 °F 30 in South 6.3 mph 8.7 mph 93 % 0 in
00:34 57.6 °F 55.4 °F 30 in SW 7.6 mph 8.7 mph 92 % 0 in
00:39 57.4 °F 55.4 °F 30 in SW 10.7 mph 10.7 mph 92 % 0 in
00:44 57.4 °F 55.4 °F 30 in SSW 7.8 mph 10.7 mph 91 % 0 in
00:49 57.2 °F 55.4 °F 30 in SSW 6.5 mph 10.7 mph 91 % 0 in
00:55 57.2 °F 55.4 °F 30 in SW 7.2 mph 10.3 mph 91 % 0 in
01:00 57.2 °F 55.4 °F 30 in SW 6.3 mph 12.1 mph 91 % 0 in
01:05 57.2 °F 55.4 °F 30 in SSW 8.9 mph 12.1 mph 91 % 0 in
01:10 57 °F 55.4 °F 30 in SW 6.5 mph 10.5 mph 92 % 0 in
01:15 57 °F 55.4 °F 30 in WSW 9.6 mph 10.3 mph 92 % 0 in
01:20 56.8 °F 55.4 °F 30 in SSW 6.5 mph 10.3 mph 92 % 0 in
01:25 56.8 °F 55.4 °F 30 in SSW 10.3 mph 10.7 mph 92 % 0 in
01:30 56.8 °F 55.4 °F 30 in SSW 6.3 mph 10.7 mph 92 % 0 in
01:35 56.7 °F 55.4 °F 30 in SSW 5.4 mph 10.5 mph 92 % 0 in
01:40 56.7 °F 55.4 °F 30 in SW 6 mph 10.5 mph 93 % 0 in
01:45 56.7 °F 55.4 °F 30 in WSW 5.8 mph 10.5 mph 93 % 0 in
01:50 56.7 °F 55.4 °F 30 in SW 5.8 mph 8.1 mph 93 % 0 in
01:55 56.3 °F 55.4 °F 30 in WSW 7.8 mph 8.7 mph 93 % 0 in
02:00 56.3 °F 55.4 °F 30 in SSW 5.4 mph 10.5 mph 94 % 0 in
02:05 56.3 °F 55.4 °F 30 in SSW 8.7 mph 10.5 mph 94 % 0 in
02:11 56.3 °F 55.4 °F 30 in SSW 7.6 mph 9.4 mph 94 % 0 in
02:16 56.5 °F 55.4 °F 30 in SSW 8.5 mph 10.3 mph 94 % 0 in
02:21 56.5 °F 55.4 °F 30 in SSW 5.6 mph 12.8 mph 94 % 0 in
02:26 56.5 °F 55.4 °F 30 in South 5.4 mph 12.8 mph 94 % 0 in
02:31 56.5 °F 55.4 °F 30 in SW 6.5 mph 12.3 mph 94 % 0 in
02:36 56.5 °F 55.4 °F 30 in WSW 6.5 mph 9.8 mph 94 % 0 in
02:41 56.5 °F 55.4 °F 30 in WSW 4 mph 9.8 mph 94 % 0 in
02:46 56.7 °F 55.4 °F 30 in Calm   8.1 mph 94 % 0 in
02:51 56.7 °F 55.4 °F 30 in WSW 3.8 mph 8.7 mph 94 % 0 in
02:56 56.7 °F 55.4 °F 30 in SW 7.2 mph 8.7 mph 94 % 0 in
03:01 32 °F 55.4 °F 0 in Calm     0 % 0 in
03:06 56.7 °F 55.4 °F 30 in SW 7.8 mph 9.4 mph 94 % 0 in
03:11 56.8 °F 55.4 °F 30 in WSW 6.3 mph 9.8 mph 94 % 0 in
03:16 56.8 °F 55.4 °F 30 in SW 9.6 mph 9.8 mph 94 % 0 in
03:21 57 °F 55.4 °F 30 in SSW 4.9 mph 9.6 mph 94 % 0 in
03:26 56.8 °F 55.4 °F 30 in South 8.5 mph 8.7 mph 94 % 0 in
03:31 56.8 °F 55.4 °F 30 in SW 6 mph 8.7 mph 94 % 0 in
03:37 56.8 °F 55.4 °F 30 in SW 7.8 mph 8.7 mph 94 % 0 in
03:42 56.8 °F 55.4 °F 30 in SW 6.5 mph 8.7 mph 94 % 0 in
03:47 56.7 °F 55.4 °F 30 in SW 5.4 mph 8.7 mph 94 % 0 in
03:52 56.7 °F 55.4 °F 30 in SSW 4 mph 7.6 mph 94 % 0 in
03:53 56.7 °F 55.4 °F 30 in SW 7.4 mph 7.6 mph 94 % 0 in
03:58 56.8 °F 55.4 °F 30 in WSW 5.6 mph 7.6 mph 94 % 0 in
04:03 56.8 °F 55.4 °F 30 in SSW 7.8 mph 8.7 mph 94 % 0 in
04:08 56.8 °F 55.4 °F 30 in SSW 7.4 mph 8.7 mph 94 % 0 in
04:13 57 °F 55.4 °F 30 in SSW 5.8 mph 9.2 mph 94 % 0 in
04:18 57 °F 55.4 °F 30 in SSW 6.5 mph 9.2 mph 94 % 0 in
04:20 57 °F 55.4 °F 30 in SW 8.1 mph 9.2 mph 94 % 0 in
04:25 57.2 °F 55.4 °F 30 in SW 1.1 mph 8.7 mph 93 % 0 in
04:30 57.2 °F 55.4 °F 30 in South 3.6 mph 7.8 mph 93 % 0 in
04:35 57.2 °F 55.4 °F 30 in WSW 7.4 mph 10.3 mph 93 % 0 in
04:40 57.2 °F 55.4 °F 30 in South 5.4 mph 10.3 mph 93 % 0 in
04:45 57.2 °F 55.4 °F 30 in West 3.8 mph 9.6 mph 93 % 0 in
04:55 57.2 °F 55.4 °F 30 in SW 4.9 mph 10.3 mph 93 % 0 in
05:00 57.2 °F 55.4 °F 30 in SSW 5.6 mph 10.3 mph 93 % 0 in
05:05 57.2 °F 55.4 °F 30 in SW 5.8 mph 8.1 mph 93 % 0 in
05:11 57.2 °F 55.4 °F 30 in SSW 4 mph 10.1 mph 93 % 0 in
05:21 57.4 °F 55.4 °F 30 in SSW 7.2 mph 8.7 mph 93 % 0 in
05:23 57.4 °F 55.4 °F 30 in SSW 6 mph 8.7 mph 93 % 0 in
05:25 57.4 °F 55.4 °F 30 in SSW 6 mph 8.1 mph 93 % 0 in
05:28 57.4 °F 55.4 °F 30 in SW 7.2 mph 8.1 mph 93 % 0 in
05:33 57.4 °F 55.4 °F 30 in WSW 6.3 mph 8.1 mph 93 % 0 in
05:38 57.6 °F 55.4 °F 30 in SW 5.6 mph 9.6 mph 93 % 0 in
05:43 57.6 °F 55.4 °F 30 in SSW 6.5 mph 9.6 mph 93 % 0 in
05:48 57.6 °F 55.4 °F 30 in SSW 5.4 mph 8.7 mph 93 % 0 in
05:53 57.6 °F 55.4 °F 30 in SSW 5.4 mph 8.7 mph 93 % 0 in
05:58 57.6 °F 55.4 °F 30 in WSW 5.8 mph 8.7 mph 93 % 0 in
06:03 57.6 °F 55.4 °F 30 in SSW 5.6 mph 10.1 mph 92 % 0 in
06:08 57.6 °F 55.4 °F 30 in WSW 6.3 mph 11 mph 92 % 0 in
06:13 57.6 °F 55.4 °F 30 in SSW 7.8 mph 11 mph 92 % 0 in
06:18 57.6 °F 55.4 °F 30 in SW 7.6 mph 10.3 mph 92 % 0 in
06:23 57.6 °F 55.4 °F 30 in WSW 4.3 mph 10.3 mph 92 % 0 in
06:28 57.6 °F 55.4 °F 30 in SSE 5.6 mph 9.8 mph 92 % 0 in
06:33 57.6 °F 55.4 °F 30 in SW 8.1 mph 10.1 mph 92 % 0 in
06:38 57.6 °F 55.4 °F 30 in SSW 9.8 mph 10.7 mph 92 % 0 in
06:44 57.6 °F 55.4 °F 30 in SW 7.6 mph 10.7 mph 92 % 0 in
06:49 57.6 °F 55.4 °F 30 in SSW 6.3 mph 10.1 mph 92 % 0 in
06:54 57.6 °F 55.4 °F 30 in South 7.8 mph 10.1 mph 92 % 0 in
06:59 57.6 °F 55.4 °F 30 in SW 3.1 mph 8.5 mph 92 % 0 in
07:04 57.6 °F 55.4 °F 29.9 in SE 5.4 mph 8.5 mph 92 % 0 in
07:09 57.6 °F 55.4 °F 29.9 in SSW 7.4 mph 8.9 mph 91 % 0 in
07:14 57.6 °F 55.4 °F 29.9 in SSW 8.7 mph 9.8 mph 91 % 0 in
07:19 57.6 °F 55.4 °F 30 in SSW 8.7 mph 9.8 mph 90 % 0 in
07:24 57.6 °F 55.4 °F 30 in WSW 6 mph 10.3 mph 90 % 0 in
07:29 57.6 °F 55.4 °F 30 in SW 6.3 mph 10.3 mph 90 % 0 in
07:34 57.6 °F 55.4 °F 30 in SSW 5.6 mph 9.6 mph 90 % 0 in
07:39 57.7 °F 55.4 °F 30 in WSW 6 mph 9.6 mph 89 % 0 in
07:49 57.7 °F 55.4 °F 30 in SSW 5.4 mph 9.6 mph 89 % 0 in
07:54 57.6 °F 55.4 °F 30 in SSW 4.7 mph 8.5 mph 89 % 0 in
07:59 57.7 °F 55.4 °F 30 in SSW 5.6 mph 10.3 mph 89 % 0 in
08:04 57.7 °F 55.4 °F 30 in SSW 4.9 mph 10.3 mph 89 % 0 in
08:09 57.7 °F 55.4 °F 30 in SW 4 mph 10.3 mph 89 % 0 in
08:14 57.7 °F 55.4 °F 30 in SW 3.4 mph 8.7 mph 89 % 0 in
08:19 57.7 °F 55.4 °F 30 in WSW 4.9 mph 9.8 mph 89 % 0 in
08:24 57.7 °F 55.4 °F 30 in WSW 6 mph 9.8 mph 89 % 0 in
08:29 57.9 °F 55.4 °F 30 in SSW 7.8 mph 8.7 mph 88 % 0 in
08:34 57.9 °F 55.4 °F 30 in SSW 5.8 mph 8.5 mph 88 % 0 in
08:39 57.9 °F 55.4 °F 30 in SW 7.4 mph 8.5 mph 88 % 0 in
08:44 57.9 °F 55.4 °F 30 in SSW 10.7 mph 10.7 mph 87 % 0 in
08:49 58.1 °F 55.4 °F 30 in SSW 7.6 mph 10.7 mph 87 % 0 in
08:54 58.1 °F 55.4 °F 30 in SW 6.3 mph 9.8 mph 87 % 0 in
08:59 58.1 °F 55.4 °F 30 in SW 5.4 mph 10.5 mph 87 % 0 in
09:05 58.3 °F 55.4 °F 30 in SW 4.9 mph 10.7 mph 86 % 0 in
09:10 58.3 °F 55.4 °F 30 in SSW 5.8 mph 10.7 mph 86 % 0 in
09:15 58.3 °F 55.4 °F 29.9 in WSW 6.5 mph 10.3 mph 86 % 0 in
09:20 58.3 °F 55.4 °F 29.9 in SW 8.9 mph 10.3 mph 86 % 0 in
09:25 58.6 °F 55.4 °F 29.9 in SW 6.3 mph 10.1 mph 86 % 0 in
09:30 58.6 °F 55.4 °F 29.9 in SW 5.8 mph 10.1 mph 85 % 0 in
09:35 58.6 °F 55.4 °F 29.9 in SSW 10.1 mph 10.3 mph 85 % 0 in
09:40 58.8 °F 55.4 °F 29.9 in SSW 8.7 mph 10.3 mph 85 % 0 in
09:45 58.8 °F 55.4 °F 30 in SW 5.8 mph 10.1 mph 85 % 0 in
09:50 58.8 °F 55.4 °F 30 in SSW 8.7 mph 10.5 mph 84 % 0 in
09:55 59 °F 55.4 °F 30 in WSW 10.7 mph 12.3 mph 84 % 0 in
10:00 59 °F 55.4 °F 29.9 in WSW 12.1 mph 12.3 mph 84 % 0 in
10:05 59.2 °F 53.6 °F 29.9 in SSW 9.8 mph 12.8 mph 83 % 0 in
10:10 59.2 °F 53.6 °F 29.9 in SSW 5.6 mph 12.8 mph 83 % 0 in
10:15 59.2 °F 53.6 °F 30 in SSW 10.3 mph 12.8 mph 83 % 0 in
10:20 59.2 °F 53.6 °F 30 in SSW 8.7 mph 12.5 mph 83 % 0 in
10:25 59.2 °F 53.6 °F 30 in SSW 10.3 mph 13.6 mph 83 % 0 in
10:30 59.4 °F 55.4 °F 30 in SSW 9.8 mph 13.6 mph 83 % 0 in
10:35 59.4 °F 55.4 °F 30 in SSW 8.9 mph 13.2 mph 83 % 0 in
10:40 59.4 °F 55.4 °F 30 in WSW 8.1 mph 12.5 mph 83 % 0 in
10:42 59.4 °F 55.4 °F 30 in WSW 8.1 mph 12.5 mph 83 % 0 in
10:52 59.4 °F 55.4 °F 30 in SW 6 mph 14.5 mph 83 % 0 in
10:57 59.4 °F 55.4 °F 30 in SW 7.6 mph 14.5 mph 83 % 0 in
11:02 59.4 °F 55.4 °F 30 in SSW 8.7 mph 11.4 mph 83 % 0 in
11:07 59.4 °F 55.4 °F 30 in West 7.4 mph 11.4 mph 83 % 0 in
11:12 59.4 °F 55.4 °F 30 in WSW 9.6 mph 9.6 mph 83 % 0 in
11:17 59.4 °F 55.4 °F 30 in WSW 8.1 mph 13 mph 83 % 0 in
11:22 59.4 °F 55.4 °F 30 in WSW 8.7 mph 13 mph 83 % 0 in
11:23 59.4 °F 55.4 °F 30 in SW 6.3 mph 13 mph 83 % 0 in
11:28 59.4 °F 55.4 °F 30 in SSW 13.6 mph 13.6 mph 83 % 0 in
11:33 59.4 °F 55.4 °F 30 in SW 9.8 mph 13.6 mph 83 % 0 in
11:38 59.4 °F 55.4 °F 30 in SW 9.8 mph 13.2 mph 83 % 0 in
11:40 59.4 °F 55.4 °F 30 in SW 7.8 mph 13.2 mph 83 % 0 in
11:45 59.4 °F 55.4 °F 30 in SW 8.7 mph 13 mph 83 % 0 in
11:50 59.4 °F 55.4 °F 30 in SW 7.6 mph 13.2 mph 83 % 0 in
11:55 59.4 °F 55.4 °F 30 in SW 12.3 mph 13.2 mph 83 % 0 in
12:00 59.4 °F 55.4 °F 30 in SW 10.3 mph 13.2 mph 83 % 0 in
12:06 59.4 °F 55.4 °F 30 in SW 11 mph 17 mph 83 % 0 in
12:11 59.4 °F 55.4 °F 30 in SW 10.3 mph 17 mph 83 % 0 in
12:16 59.4 °F 55.4 °F 30 in WSW 10.7 mph 12.1 mph 83 % 0 in
12:21 59.4 °F 55.4 °F 30 in WSW 10.7 mph 12.1 mph 83 % 0 in
12:26 59.4 °F 55.4 °F 30 in SSW 7.8 mph 10.7 mph 83 % 0 in
12:31 59.4 °F 55.4 °F 30 in WSW 7.6 mph 12.5 mph 83 % 0 in
12:36 59.4 °F 55.4 °F 30 in SW 14.8 mph 15.4 mph 83 % 0 in
12:41 62.6 °F 53.6 °F 30 in SSW 12.5 mph 15.4 mph 70 % 0 in
12:46 62.6 °F 53.6 °F 29.9 in SW 7.4 mph 15.4 mph 70 % 0 in
12:52 62.8 °F 53.6 °F 29.9 in SSW 12.5 mph 15.4 mph 70 % 0 in
12:57 62.6 °F 51.8 °F 29.9 in SW 8.1 mph 16.8 mph 68 % 0 in
13:02 62.6 °F 51.8 °F 30 in WSW 9.8 mph 16.8 mph 68 % 0 in
13:07 62.6 °F 51.8 °F 30 in SSW 12.1 mph 12.8 mph 68 % 0 in
13:12 62.6 °F 51.8 °F 30 in SSW 10.3 mph 13 mph 68 % 0 in
13:17 62.6 °F 51.8 °F 30 in WSW 10.1 mph 13 mph 68 % 0 in
13:22 62.6 °F 51.8 °F 30 in WSW 13.2 mph 13.2 mph 68 % 0 in
13:27 62.6 °F 51.8 °F 30 in SSW 10.5 mph 13.2 mph 68 % 0 in
13:32 62.6 °F 51.8 °F 30 in WSW 12.3 mph 12.8 mph 68 % 0 in
13:37 62.6 °F 51.8 °F 30 in SSW 9.6 mph 15.2 mph 68 % 0 in
13:42 62.6 °F 51.8 °F 30 in SW 11.4 mph 15.2 mph 68 % 0 in
13:47 62.6 °F 51.8 °F 30 in SSW 7.8 mph 12.3 mph 68 % 0 in
13:52 62.6 °F 51.8 °F 30 in WSW 11 mph 13.4 mph 68 % 0 in
13:57 62.6 °F 51.8 °F 30 in SSW 12.8 mph 13.4 mph 68 % 0 in
14:02 62.6 °F 51.8 °F 30 in SW 14.8 mph 14.8 mph 68 % 0 in
14:07 62.6 °F 51.8 °F 30 in SW 10.3 mph 14.8 mph 68 % 0 in
14:17 62.6 °F 51.8 °F 30 in SW 10.5 mph 17.7 mph 68 % 0 in
14:22 62.6 °F 51.8 °F 30 in SW 6.5 mph 17.7 mph 68 % 0 in
14:27 62.6 °F 51.8 °F 30 in WSW 8.7 mph 13.2 mph 68 % 0 in
14:32 62.6 °F 51.8 °F 29.9 in WSW 14.1 mph 17.4 mph 68 % 0 in
14:38 62.6 °F 51.8 °F 29.9 in WSW 13.2 mph 17.4 mph 68 % 0 in
14:43 61 °F 51.8 °F 29.9 in WSW 12.8 mph 17.7 mph 71 % 0 in
14:53 61 °F 51.8 °F 29.9 in SW 8.5 mph 14.3 mph 72 % 0 in
14:58 61 °F 51.8 °F 29.9 in SW 8.7 mph 15.4 mph 72 % 0 in
15:03 61 °F 51.8 °F 30 in West 7.6 mph 15.4 mph 72 % 0 in
15:08 61 °F 51.8 °F 30 in SW 14.8 mph 15.7 mph 72 % 0 in
15:13 60.6 °F 51.8 °F 30 in SSW 15.2 mph 15.7 mph 71 % 0 in
15:18 61 °F 51.8 °F 29.9 in SW 11.2 mph 15.2 mph 71 % 0 in
15:23 61 °F 51.8 °F 29.9 in SSW 12.8 mph 15.2 mph 71 % 0 in
15:28 61.2 °F 51.8 °F 29.9 in SSW 17.7 mph 19 mph 70 % 0 in
15:33 61.2 °F 51.8 °F 29.9 in SW 9.8 mph 19 mph 70 % 0 in
15:38 61.2 °F 51.8 °F 29.9 in WSW 10.3 mph 17 mph 70 % 0 in
15:43 61.2 °F 51.8 °F 29.9 in WSW 14.1 mph 17 mph 70 % 0 in
15:53 60.4 °F 51.8 °F 29.9 in SW 7.6 mph 15.4 mph 72 % 0 in
15:58 60.4 °F 51.8 °F 29.9 in SW 9.8 mph 15.4 mph 72 % 0 in
16:03 60.4 °F 51.8 °F 29.9 in SSW 12.1 mph 15.4 mph 72 % 0 in
16:08 60.4 °F 51.8 °F 29.9 in SSW 12.8 mph 15.4 mph 72 % 0 in
16:13 60.4 °F 51.8 °F 29.9 in SSW 8.1 mph 15.2 mph 72 % 0 in
16:18 60.4 °F 51.8 °F 29.9 in SSW 8.7 mph 15.2 mph 72 % 0 in
16:23 60.4 °F 51.8 °F 29.9 in SW 12.3 mph 14.5 mph 72 % 0 in
16:28 60.4 °F 51.8 °F 29.9 in SSW 14.1 mph 15.2 mph 72 % 0 in
16:33 60.4 °F 51.8 °F 29.9 in SSW 12.1 mph 15.2 mph 72 % 0 in
16:38 60.4 °F 51.8 °F 29.9 in SW 8.9 mph 13.2 mph 72 % 0 in
16:44 60.4 °F 51.8 °F 29.9 in SW 6.3 mph 14.5 mph 72 % 0 in
16:49 60.4 °F 51.8 °F 29.9 in SSW 8.5 mph 14.5 mph 72 % 0 in
16:54 60.4 °F 51.8 °F 29.9 in SSW 7.8 mph 13.4 mph 72 % 0 in
16:59 62.1 °F 51.8 °F 29.9 in WSW 8.1 mph 13.4 mph 69 % 0 in
17:04 62.1 °F 51.8 °F 29.9 in West 11 mph 12.5 mph 69 % 0 in
17:09 62.2 °F 51.8 °F 29.9 in WSW 7.8 mph 12.1 mph 69 % 0 in
17:14 63.1 °F 53.6 °F 29.9 in SW 8.7 mph 12.5 mph 68 % 0 in
17:19 63 °F 53.6 °F 29.9 in SW 7.6 mph 13.2 mph 68 % 0 in
17:24 62.6 °F 51.8 °F 29.9 in SW 9.6 mph 13.2 mph 67 % 0 in
17:29 62.6 °F 51.8 °F 29.9 in SW 8.5 mph 13.9 mph 67 % 0 in
17:34 62.1 °F 51.8 °F 29.9 in SSW 7.6 mph 13.9 mph 69 % 0 in
17:39 62.1 °F 51.8 °F 29.9 in SSW 9.8 mph 13 mph 70 % 0 in
17:44 61.9 °F 51.8 °F 29.9 in SW 8.5 mph 11 mph 70 % 0 in
17:49 61.9 °F 51.8 °F 29.9 in WSW 6.7 mph 11 mph 70 % 0 in
17:59 61.7 °F 53.6 °F 29.9 in West 8.7 mph 14.5 mph 71 % 0 in
18:04 61.5 °F 51.8 °F 29.9 in SSW 8.1 mph 14.5 mph 71 % 0 in
18:14 61.3 °F 53.6 °F 29.9 in SW 8.7 mph 16.8 mph 72 % 0 in
18:19 61.2 °F 53.6 °F 29.9 in SSW 8.7 mph 16.8 mph 72 % 0 in
18:24 61 °F 51.8 °F 29.9 in SW 10.3 mph 13 mph 72 % 0 in
18:29 61 °F 51.8 °F 29.9 in SW 7.4 mph 11 mph 73 % 0 in
18:39 60.8 °F 51.8 °F 29.9 in WSW 7.4 mph 11 mph 73 % 0 in
18:44 60.8 °F 51.8 °F 29.9 in SW 9.6 mph 11 mph 73 % 0 in
18:49 60.8 °F 51.8 °F 29.9 in SW 5.8 mph 10.3 mph 73 % 0 in
18:54 60.4 °F 53.6 °F 29.9 in SSW 5.6 mph 10.3 mph 75 % 0 in
18:59 60.4 °F 53.6 °F 29.9 in SW 6.3 mph 10.7 mph 75 % 0 in
19:01 60.4 °F 53.6 °F 29.9 in WSW 8.5 mph 10.7 mph 75 % 0 in
19:06 60.4 °F 53.6 °F 29.9 in South 5.4 mph 10.7 mph 76 % 0 in
19:11 60.4 °F 53.6 °F 29.9 in SW 6 mph 10.1 mph 76 % 0 in
19:14 60.3 °F 53.6 °F 29.9 in SSW 6 mph 8.7 mph 76 % 0 in
19:19 60.3 °F 53.6 °F 29.9 in SW 7.6 mph 10.1 mph 77 % 0 in
19:24 60.3 °F 53.6 °F 29.9 in SSW 6.5 mph 10.1 mph 77 % 0 in
19:29 60.3 °F 53.6 °F 29.9 in SW 7.8 mph 8.9 mph 77 % 0 in
19:34 60.3 °F 53.6 °F 29.9 in SSW 5.4 mph 8.5 mph 78 % 0 in
19:40 60.3 °F 53.6 °F 29.9 in SW 5.8 mph 7.6 mph 78 % 0 in
19:45 60.1 °F 53.6 °F 29.9 in South 3.8 mph 9.8 mph 78 % 0 in
19:50 60.1 °F 53.6 °F 29.9 in SSW 5.4 mph 9.8 mph 78 % 0 in
19:55 60.1 °F 53.6 °F 29.9 in SSW 6 mph 8.7 mph 78 % 0 in
20:00 60.1 °F 53.6 °F 29.9 in SSW 5.4 mph 8.9 mph 78 % 0 in
20:05 60.1 °F 53.6 °F 29.9 in SSW 6 mph 8.9 mph 78 % 0 in
20:10 60.1 °F 53.6 °F 29.9 in SW 6 mph 8.7 mph 78 % 0 in
20:15 60.1 °F 53.6 °F 29.9 in SSW 8.7 mph 10.3 mph 78 % 0 in
20:20 60.1 °F 53.6 °F 29.9 in SSW 5.8 mph 10.3 mph 78 % 0 in
20:25 60.1 °F 53.6 °F 29.9 in South 7.6 mph 9.8 mph 78 % 0 in
20:30 59.5 °F 53.6 °F 29.9 in South 7.4 mph 8.7 mph 79 % 0 in
20:35 59.7 °F 53.6 °F 29.9 in SSW 5.8 mph 8.7 mph 80 % 0 in
20:40 59.5 °F 53.6 °F 29.9 in Calm   9.8 mph 80 % 0 in
20:45 59.4 °F 53.6 °F 29.9 in SSW 3.8 mph 9.8 mph 80 % 0 in
20:50 59.4 °F 53.6 °F 29.9 in SW 4.5 mph 8.5 mph 80 % 0 in
20:55 59.4 °F 53.6 °F 29.9 in South 3.6 mph 9.8 mph 81 % 0 in
21:00 59.4 °F 53.6 °F 29.9 in WSW 4 mph 9.8 mph 81 % 0 in
21:05 59.4 °F 53.6 °F 29.9 in SW 4 mph 8.7 mph 81 % 0 in
21:10 59.5 °F 53.6 °F 29.9 in WSW 5.4 mph 8.7 mph 81 % 0 in
21:15 59.5 °F 53.6 °F 29.9 in WSW 6.5 mph 8.7 mph 81 % 0 in
21:20 59.5 °F 53.6 °F 29.9 in SW 7.2 mph 9.8 mph 81 % 0 in
21:25 59.5 °F 53.6 °F 29.9 in SSW 7.2 mph 9.8 mph 81 % 0 in
21:30 59.5 °F 53.6 °F 29.9 in SSW 7.8 mph 8.1 mph 81 % 0 in
21:46 32 °F 53.6 °F 29.9 in Calm     0 % 0 in
21:51 59.7 °F 53.6 °F 29.9 in South 6.7 mph 9.4 mph 81 % 0 in
21:56 59.7 °F 53.6 °F 29.9 in SW 5.8 mph 10.7 mph 81 % 0 in
22:01 59.7 °F 53.6 °F 29.9 in SSW 7.2 mph 10.7 mph 81 % 0 in
22:06 59.7 °F 53.6 °F 29.9 in SSW 5.8 mph 13 mph 81 % 0 in
22:11 59.9 °F 55.4 °F 29.9 in SSW 4.7 mph 13 mph 81 % 0 in
22:16 59.9 °F 55.4 °F 29.9 in SSW 10.5 mph 11.9 mph 81 % 0 in
22:21 59.9 °F 55.4 °F 29.9 in SSW 8.1 mph 13 mph 81 % 0 in
22:26 59.9 °F 55.4 °F 29.9 in SW 7.2 mph 13 mph 81 % 0 in
22:31 59.9 °F 55.4 °F 29.9 in SSW 8.5 mph 11 mph 81 % 0 in
22:36 59.9 °F 55.4 °F 29.9 in SSW 5.8 mph 14.5 mph 81 % 0 in
22:39 59.9 °F 55.4 °F 29.9 in SW 11 mph 14.5 mph 81 % 0 in
22:44 59.9 °F 55.4 °F 29.9 in SSW 6.3 mph 13 mph 81 % 0 in
22:49 59.9 °F 55.4 °F 29.9 in WSW 8.5 mph 13 mph 81 % 0 in
22:54 59.9 °F 55.4 °F 29.9 in SSW 7.6 mph 15.4 mph 81 % 0 in
22:59 59.9 °F 55.4 °F 29.9 in WSW 10.3 mph 15.4 mph 81 % 0 in
23:04 60.1 °F 55.4 °F 29.9 in SSW 8.1 mph 13.2 mph 81 % 0 in
23:09 60.1 °F 55.4 °F 29.9 in SSW 7.8 mph 12.8 mph 81 % 0 in
23:14 60.1 °F 55.4 °F 29.9 in SSW 8.9 mph 12.8 mph 82 % 0 in
23:24 60.3 °F 55.4 °F 29.9 in SW 7.6 mph 11 mph 82 % 0 in
23:30 60.3 °F 55.4 °F 29.9 in WSW 10.1 mph 15.7 mph 82 % 0 in
23:35 60.4 °F 55.4 °F 29.9 in SSW 8.7 mph 15.7 mph 82 % 0 in
23:40 60.4 °F 55.4 °F 29.9 in SW 5.6 mph 13.4 mph 82 % 0 in
23:45 60.6 °F 55.4 °F 29.9 in SW 17.2 mph 17.2 mph 83 % 0 in
23:50 60.8 °F 55.4 °F 29.9 in SW 11.2 mph 17.2 mph 82 % 0 in
23:55 61 °F 55.4 °F 29.9 in WSW 6.3 mph 12.8 mph 82 % 0 in
Le Gheer Warneton
Courtoisie de Weather Underground - 2.25 mb

Mise a jour : 16-12-17 15:43:11
Généré par Cumulus 1.9.4 (1099)